Previsão horária em Abramovschina 1

Hoje, 18 Maio, Terça-feira

Tempo Temperatura Precipitação Vento Pressão Humidade
00:00 +13°C° 0 mm 2 m/s 738 mmHg 97%
01:00 +13°C° 0 mm 2 m/s 737 mmHg 98%
02:00 +12°C° 0 mm 2 m/s 737 mmHg 98%
03:00 +12°C° 0.1 mm 2 m/s 736 mmHg 98%
04:00 +13°C° 0.1 mm 2 m/s 736 mmHg 98%
05:00 +13°C° 0.1 mm 2 m/s 736 mmHg 98%
06:00 +13°C° 0.2 mm 2 m/s 736 mmHg 98%
07:00 +13°C° 0.2 mm 2 m/s 736 mmHg 98%
08:00 +13°C° 0.2 mm 2 m/s 736 mmHg 98%
09:00 +13°C° 0.2 mm 2 m/s 736 mmHg 98%
10:00 +13°C° 0.2 mm 2 m/s 736 mmHg 97%
11:00 +13°C° 0.2 mm 1 m/s 736 mmHg 97%
12:00 +13°C° 0.2 mm 2 m/s 736 mmHg 96%
13:00 +13°C° 0.2 mm 2 m/s 736 mmHg 96%
14:00 +14°C° 0.2 mm 2 m/s 737 mmHg 95%
15:00 +13°C° 0 mm 2 m/s 737 mmHg 95%
16:00 +13°C° 0 mm 2 m/s 737 mmHg 95%
17:00 +13°C° 0 mm 2 m/s 737 mmHg 95%
18:00 +12°C° 0 mm 2 m/s 737 mmHg 96%
19:00 +12°C° 0 mm 2 m/s 737 mmHg 96%
20:00 +11°C° 0 mm 3 m/s 737 mmHg 97%
21:00 +10°C° 0 mm 3 m/s 736 mmHg 97%
22:00 +10°C° 0 mm 3 m/s 736 mmHg 97%
23:00 +10°C° 0 mm 3 m/s 736 mmHg 98%

Amanhã, 19 Maio, Quarta-feira

Tempo Temperatura Precipitação Vento Pressão Humidade
00:00 +10°C° 0 mm 3 m/s 736 mmHg 98%
01:00 +10°C° 0 mm 3 m/s 736 mmHg 98%
02:00 +10°C° 0 mm 3 m/s 736 mmHg 98%
03:00 +10°C° 0.2 mm 3 m/s 736 mmHg 97%
04:00 +9°C° 0.2 mm 3 m/s 736 mmHg 97%
05:00 +9°C° 0.2 mm 3 m/s 736 mmHg 97%
06:00 +9°C° 0.6 mm 3 m/s 736 mmHg 97%
07:00 +9°C° 0.6 mm 3 m/s 736 mmHg 97%
08:00 +9°C° 0.6 mm 3 m/s 736 mmHg 97%
09:00 +9°C° 0.7 mm 3 m/s 737 mmHg 96%
10:00 +9°C° 0.7 mm 3 m/s 737 mmHg 96%
11:00 +8°C° 0.7 mm 4 m/s 737 mmHg 96%
12:00 +8°C° 0.2 mm 4 m/s 738 mmHg 96%
13:00 +10°C° 0.2 mm 4 m/s 738 mmHg 95%
14:00 +10°C° 0.2 mm 4 m/s 738 mmHg 95%
15:00 +10°C° 1 mm 4 m/s 739 mmHg 95%
16:00 +10°C° 1 mm 4 m/s 739 mmHg 95%
17:00 +10°C° 1 mm 4 m/s 739 mmHg 95%
18:00 +10°C° 0.7 mm 3 m/s 740 mmHg 95%
19:00 +10°C° 0.7 mm 3 m/s 740 mmHg 96%
20:00 +10°C° 0.7 mm 3 m/s 740 mmHg 96%
21:00 +9°C° 0.1 mm 2 m/s 740 mmHg 96%
22:00 +9°C° 0.1 mm 2 m/s 740 mmHg 96%
23:00 +9°C° 0.1 mm 2 m/s 741 mmHg 96%

Depois de amanhã, 20 Maio, Quinta-feira

Tempo Temperatura Precipitação Vento Pressão Humidade
00:00 +9°C° 0 mm 2 m/s 741 mmHg 96%
01:00 +8°C° 0 mm 2 m/s 741 mmHg 95%
02:00 +8°C° 0 mm 2 m/s 741 mmHg 95%
03:00 +8°C° 0 mm 2 m/s 741 mmHg 96%
04:00 +7°C° 0 mm 2 m/s 741 mmHg 96%
05:00 +7°C° 0 mm 2 m/s 741 mmHg 97%
06:00 +8°C° 0 mm 3 m/s 741 mmHg 93%
07:00 +10°C° 0 mm 4 m/s 742 mmHg 88%
08:00 +11°C° 0 mm 4 m/s 742 mmHg 84%
09:00 +12°C° 0 mm 5 m/s 742 mmHg 78%
10:00 +13°C° 0 mm 5 m/s 742 mmHg 72%
11:00 +14°C° 0 mm 6 m/s 742 mmHg 66%
12:00 +14°C° 0.1 mm 6 m/s 742 mmHg 64%
13:00 +15°C° 0.1 mm 6 m/s 742 mmHg 62%
14:00 +15°C° 0.1 mm 6 m/s 742 mmHg 61%
15:00 +15°C° 0.1 mm 5 m/s 742 mmHg 62%
16:00 +15°C° 0.1 mm 5 m/s 742 mmHg 64%
17:00 +15°C° 0.1 mm 5 m/s 742 mmHg 66%
18:00 +14°C° 0 mm 4 m/s 742 mmHg 71%
19:00 +13°C° 0 mm 4 m/s 742 mmHg 76%
20:00 +12°C° 0 mm 4 m/s 743 mmHg 81%
21:00 +11°C° 0 mm 4 m/s 743 mmHg 84%
22:00 +10°C° 0 mm 3 m/s 744 mmHg 88%
23:00 +9°C° 0 mm 3 m/s 744 mmHg 91%

21 Maio, Sexta-feira

Tempo Temperatura Precipitação Vento Pressão Humidade
00:00 +8°C° 0 mm 3 m/s 744 mmHg 93%
01:00 +7°C° 0 mm 3 m/s 745 mmHg 94%
02:00 +5°C° 0 mm 3 m/s 745 mmHg 95%
03:00 +5°C° 0 mm 3 m/s 745 mmHg 95%
04:00 +4°C° 0 mm 3 m/s 745 mmHg 95%
05:00 +4°C° 0 mm 3 m/s 745 mmHg 95%
06:00 +7°C° 0 mm 3 m/s 746 mmHg 86%
07:00 +8°C° 0 mm 3 m/s 746 mmHg 78%
08:00 +10°C° 0 mm 4 m/s 746 mmHg 69%
09:00 +11°C° 0 mm 4 m/s 746 mmHg 64%
10:00 +12°C° 0 mm 4 m/s 747 mmHg 59%
11:00 +13°C° 0 mm 4 m/s 747 mmHg 53%
12:00 +14°C° 0 mm 4 m/s 747 mmHg 51%
13:00 +15°C° 0 mm 4 m/s 746 mmHg 49%
14:00 +15°C° 0 mm 4 m/s 746 mmHg 47%
15:00 +15°C° 0 mm 4 m/s 746 mmHg 48%
16:00 +16°C° 0 mm 3 m/s 746 mmHg 50%
17:00 +16°C° 0 mm 3 m/s 746 mmHg 51%
18:00 +14°C° 0 mm 2 m/s 746 mmHg 58%
19:00 +13°C° 0 mm 1 m/s 747 mmHg 65%
20:00 +10°C° 0 mm 0 m/s 747 mmHg 72%
21:00 +10°C° 0 mm 1 m/s 747 mmHg 75%
22:00 +10°C° 0 mm 1 m/s 747 mmHg 78%
23:00 +8°C° 0 mm 2 m/s 747 mmHg 81%

22 Maio, Sábado

Tempo Temperatura Precipitação Vento Pressão Humidade
00:00 +7°C° 0 mm 2 m/s 746 mmHg 81%
01:00 +7°C° 0 mm 2 m/s 746 mmHg 81%
02:00 +7°C° 0 mm 2 m/s 746 mmHg 81%
03:00 +7°C° 0 mm 3 m/s 746 mmHg 80%
04:00 +8°C° 0 mm 3 m/s 746 mmHg 79%
05:00 +8°C° 0 mm 3 m/s 746 mmHg 78%
06:00 +10°C° 0 mm 4 m/s 746 mmHg 75%
07:00 +11°C° 0 mm 4 m/s 745 mmHg 71%
08:00 +13°C° 0 mm 5 m/s 745 mmHg 68%
09:00 +14°C° 0 mm 5 m/s 745 mmHg 65%
10:00 +15°C° 0 mm 5 m/s 745 mmHg 62%
11:00 +16°C° 0 mm 6 m/s 745 mmHg 59%
12:00 +17°C° 0 mm 6 m/s 745 mmHg 57%
13:00 +17°C° 0 mm 6 m/s 745 mmHg 55%
14:00 +19°C° 0 mm 6 m/s 744 mmHg 53%
15:00 +19°C° 0 mm 6 m/s 744 mmHg 55%
16:00 +19°C° 0 mm 6 m/s 744 mmHg 58%
17:00 +19°C° 0 mm 5 m/s 743 mmHg 60%
18:00 +17°C° 0 mm 5 m/s 743 mmHg 64%
19:00 +16°C° 0 mm 5 m/s 743 mmHg 68%
20:00 +14°C° 0 mm 5 m/s 743 mmHg 71%
21:00 +14°C° 0 mm 5 m/s 742 mmHg 70%
22:00 +14°C° 0 mm 5 m/s 742 mmHg 69%
23:00 +14°C° 0 mm 5 m/s 741 mmHg 68%

23 Maio, Domingo

Tempo Temperatura Precipitação Vento Pressão Humidade
00:00 +13°C° 0.4 mm 6 m/s 741 mmHg 75%
01:00 +13°C° 0.4 mm 6 m/s 740 mmHg 83%
02:00 +11°C° 0.4 mm 6 m/s 740 mmHg 90%
03:00 +11°C° 0.6 mm 6 m/s 739 mmHg 92%
04:00 +12°C° 0.6 mm 5 m/s 739 mmHg 94%
05:00 +12°C° 0.6 mm 5 m/s 739 mmHg 96%
06:00 +12°C° 1.1 mm 5 m/s 739 mmHg 95%
07:00 +12°C° 1.1 mm 4 m/s 740 mmHg 94%
08:00 +11°C° 1.1 mm 4 m/s 740 mmHg 93%
09:00 +12°C° 0.2 mm 5 m/s 740 mmHg 87%
10:00 +13°C° 0.2 mm 5 m/s 741 mmHg 81%
11:00 +14°C° 0.2 mm 6 m/s 741 mmHg 76%
12:00 +15°C° 0.1 mm 6 m/s 741 mmHg 70%
13:00 +15°C° 0.1 mm 6 m/s 741 mmHg 64%
14:00 +16°C° 0.1 mm 5 m/s 742 mmHg 58%
15:00 +15°C° 0.5 mm 5 m/s 742 mmHg 65%
16:00 +15°C° 0.5 mm 5 m/s 742 mmHg 72%
17:00 +14°C° 0.5 mm 5 m/s 743 mmHg 79%
18:00 +13°C° 0.2 mm 4 m/s 743 mmHg 83%
19:00 +12°C° 0.2 mm 3 m/s 743 mmHg 87%
20:00 +12°C° 0.2 mm 2 m/s 743 mmHg 90%
21:00 +10°C° 0.1 mm 2 m/s 744 mmHg 92%
22:00 +9°C° 0.1 mm 2 m/s 744 mmHg 93%
23:00 +9°C° 0.1 mm 2 m/s 744 mmHg 94%
Mostrar mais

Necessitamos do seu Consentimento

A Meteoprog e os seus Fornecedores de Serviços podem armazenar e aceder a dados pessoais como cookies, identificadores do dispositivo ou outras tecnologias semelhantes existentes no seu dispositivo e processar estes dados para personalizar conteúdos e anúncios, assim como funcionalidades nas redes sociais e análise de tráfego.

  • Armazenar e/ou aceder a informações no seu dispositivo

    Os cookies, identificadores do dispositivo ou outras informações podem ser armazenados ou acedidos no seu dispositivo, para os fins acima indicados.

  • Anúncios e conteúdos personalizados, medição de anúncios e conteúdos, dados sobre o público-alvo e desenvolvimento de produtos

    Os anúncios e os conteúdos podem ser personalizados com base num perfil. Podem ser adicionados dados adicionais para uma maior personalização dos anúncios e dos conteúdos. A eficácia dos anúncios e dos conteúdos pode ser medida. Podem ser obtidas informações sobre o público que visualizou os anúncios e os conteúdos. Estes dados podem ser usados para desenvolver ou melhorar sistemas, softwares ou a experiência do utilizador.

Ao clicar em "Eu concordo”, permitirá o uso de cookies, identificadores do dispositivo e web beacons mencionados ou outras tecnologias semelhantes. As configurações do navegador do seu dispositivo podem ser alteradas.

Para certos fins, podem ser invocados interesses legítimos ao invés de consentimento. Pode ler mais informação sobre este assunto na nossa Política de Privacidade e Cookies.